FW5929 Weather Reports


Display with metric or nautical units.
time (UTC)temp
F
wind
direction
speed
MPH
gust
MPH
rain 1hr
in
rain 24hr
in
rain mn
in
humidity
%
barometer
mb
20260505212830 54 192 0.0 4.0 0.00 1.57 0.31 94 1007.1
20260505212327 54 197 2.0 4.0 0.00 1.57 0.31 94 1007.1
20260505211824 54 197 1.0 3.0 0.00 1.57 0.31 94 1007.1
20260505211322 54 197 2.0 3.0 0.00 1.57 0.31 94 1007.2
20260505210818 54 197 3.0 3.0 0.00 1.57 0.31 94 1007.1
20260505210317 54 196 1.0 2.0 0.00 1.57 0.31 94 1007.2
20260505205834 54 197 1.0 2.0 0.00 1.57 0.31 94 1007.3
20260505205331 54 197 0.0 2.0 0.00 1.57 0.31 94 1007.2
20260505204847 54 196 1.0 2.0 0.00 1.57 0.31 94 1007.3
20260505204324 54 196 1.0 2.0 0.00 1.57 0.31 94 1007.2
20260505203820 54 196 1.0 3.0 0.00 1.57 0.31 94 1007.3
20260505203317 54 196 2.0 3.0 0.00 1.57 0.31 94 1007.4
20260505202832 54 196 1.0 2.0 0.00 1.57 0.31 94 1007.4
20260505202331 54 196 1.0 3.0 0.00 1.57 0.31 94 1007.4
20260505201826 54 196 2.0 3.0 0.00 1.57 0.31 94 1007.3
20260505201324 54 196 0.0 2.0 0.00 1.57 0.31 94 1007.3
20260505200819 55 196 0.0 4.0 0.00 1.57 0.31 94 1007.3
20260505200318 55 196 1.0 4.0 0.00 1.57 0.31 94 1007.2
20260505195814 55 171 2.0 4.0 0.00 1.57 0.31 94 1007.3
20260505195333 55 171 0.0 2.0 0.00 1.57 0.31 94 1007.2
20260505194829 55 171 1.0 3.0 0.08 1.57 0.31 94 1007.1
20260505194350 55 171 2.0 4.0 0.08 1.57 0.31 94 1007.2
20260505193824 55 171 2.0 5.0 0.08 1.57 0.31 94 1007.1
20260505193322 55 126 2.0 4.0 0.08 1.57 0.31 94 1007.0
20260505192839 55 119 1.0 2.0 0.08 1.57 0.31 94 1006.9
20260505192315 55 118 1.0 3.0 0.08 1.57 0.31 94 1006.8
20260505191832 55 118 2.0 3.0 0.08 1.57 0.31 94 1006.9
20260505191329 55 199 1.0 2.0 0.08 1.57 0.31 94 1006.9
20260505190823 56 199 2.0 2.0 0.08 1.57 0.31 94 1006.9
20260505190320 56 199 2.0 2.0 0.08 1.57 0.31 93 1006.9
20260505185836 56 199 1.0 2.0 0.08 1.57 0.31 93 1006.9
20260505185332 56 199 0.0 1.0 0.04 1.54 0.31 93 1006.9
20260505184826 56 199 0.0 1.0 0.00 1.50 0.30 93 1007.0
20260505184326 56 199 0.0 1.0 0.00 1.50 0.30 93 1007.0
20260505183821 56 198 0.0 1.0 0.00 1.50 0.30 93 1006.9
20260505183318 56 198 0.0 2.0 0.00 1.50 0.30 93 1006.9
20260505182833 56 198 1.0 2.0 0.00 1.50 0.30 93 1006.9
20260505182331 56 198 1.0 2.0 0.04 1.50 0.30 93 1006.9
20260505181826 56 198 1.0 3.0 0.04 1.50 0.30 93 1006.9
20260505181324 56 198 1.0 3.0 0.04 1.50 0.30 93 1006.9
20260505180818 56 198 2.0 3.0 0.08 1.50 0.30 93 1006.8
20260505180315 56 198 1.0 3.0 0.08 1.50 0.30 93 1006.8
20260505175854 56 198 2.0 4.0 0.08 1.54 0.30 93 1006.9
20260505175332 56 198 2.0 4.0 0.08 1.54 0.30 93 1006.9
20260505174827 56 163 2.0 3.0 0.08 1.54 0.30 93 1006.9
20260505174326 56 163 2.0 3.0 0.08 1.54 0.30 93 1006.8
20260505173823 56 162 2.0 3.0 0.12 1.54 0.30 93 1006.8
20260505173320 56 162 1.0 5.0 0.20 1.54 0.30 93 1006.8
20260505172815 56 136 2.0 5.0 0.24 1.54 0.30 93 1006.8
20260505172358 56 136 3.0 4.0 0.24 1.50 0.29 93 1006.8
20260505171853 56 198 2.0 3.0 0.28 1.50 0.29 93 1006.8
20260505171333 56 198 1.0 2.0 0.31 1.50 0.29 93 1006.8
20260505170828 56 198 1.0 2.0 0.31 1.46 0.28 93 1006.9
20260505170327 56 198 1.0 3.0 0.35 1.46 0.28 93 1006.9
20260505165821 56 197 2.0 4.0 0.43 1.46 0.28 93 1007.0
20260505165338 57 197 1.0 4.0 0.51 1.46 0.28 92 1007.0
20260505164832 56 180 2.0 3.0 0.55 1.46 0.28 92 1007.0
20260505164330 56 50 1.0 2.0 0.71 1.42 0.28 92 1006.9
20260505163825 56 42 0.0 3.0 0.91 1.42 0.28 92 1006.9
20260505163324 56 42 2.0 3.0 0.91 1.34 0.26 92 1006.8
20260505162820 56 19 2.0 3.0 0.91 1.30 0.25 92 1006.8
20260505162320 57 19 0.0 2.0 0.87 1.26 0.24 92 1007.0
20260505161817 57 19 1.0 2.0 0.83 1.22 0.24 91 1007.0
20260505161316 57 19 0.0 2.0 0.79 1.18 0.23 91 1006.9
20260505160833 57 19 0.0 3.0 0.75 1.14 0.22 91 1006.9
20260505160332 57 19 1.0 3.0 0.71 1.10 0.21 90 1007.0
20260505153332 58 32 2.0 4.0 0.04 0.43 0.08 88 1007.1
20260505152829 59 28 3.0 8.0 0.00 0.39 0.07 87 1007.0
20260505152347 59 17 5.0 8.0 0.00 0.39 0.07 87 1007.0
20260505151823 59 42 1.0 4.0 0.00 0.39 0.07 86 1007.0
20260505151342 59 42 2.0 4.0 0.00 0.39 0.07 85 1007.0
20260505150816 59 42 3.0 5.0 0.00 0.39 0.07 83 1007.0
20260505150329 59 355 2.0 5.0 0.00 0.39 0.07 84 1007.0
20260505140326 59 81 3.0 6.0 0.04 0.39 0.07 86 1007.2
20260505124843 57 63 4.0 6.0 0.04 0.35 0.06 89 1007.8
20260505124321 58 62 3.0 5.0 0.04 0.35 0.06 89 1007.8
20260505123835 58 17 2.0 4.0 0.08 0.35 0.06 89 1007.8
20260505123331 58 62 2.0 8.0 0.08 0.35 0.06 90 1007.8
20260505122827 58 16 4.0 8.0 0.12 0.35 0.06 90 1007.8
20260505122326 58 63 4.0 6.0 0.12 0.35 0.06 90 1007.9
20260505121821 58 54 3.0 6.0 0.16 0.35 0.06 90 1007.9
20260505121318 58 50 4.0 6.0 0.16 0.31 0.06 90 1008.0
20260505120834 57 31 4.0 6.0 0.16 0.31 0.06 91 1008.0
20260505120332 57 61 3.0 6.0 0.20 0.31 0.06 91 1008.1
20260505115828 57 67 2.0 7.0 0.24 0.31 0.06 92 1008.2
20260505115326 56 86 3.0 7.0 0.24 0.31 0.06 92 1008.3
20260505114823 56 57 3.0 6.0 0.24 0.31 0.06 92 1008.3
20260505114321 56 67 2.0 5.0 0.24 0.28 0.05 92 1008.4
20260505113817 56 78 3.0 6.0 0.24 0.28 0.05 92 1008.4
20260505113314 56 76 3.0 7.0 0.24 0.28 0.05 92 1008.5
20260505112829 56 78 3.0 5.0 0.20 0.24 0.04 92 1008.6
20260505112327 56 46 3.0 5.0 0.20 0.24 0.04 92 1008.6
20260505111821 55 73 3.0 5.0 0.16 0.20 0.03 92 1008.7
20260505111318 56 36 2.0 5.0 0.12 0.16 0.02 92 1008.7
20260505110832 55 70 3.0 7.0 0.08 0.12 0.02 92 1008.7
20260505110332 55 67 3.0 7.0 0.08 0.12 0.02 92 1008.8
20260505101816 55 67 5.0 8.0 0.00 0.08 0.00 92 1009.0
20260505101314 55 74 3.0 5.0 0.00 0.08 0.00 92 1009.0
20260505100825 54 90 2.0 4.0 0.00 0.08 0.00 92 1009.0
20260505100323 55 97 2.0 5.0 0.00 0.08 0.00 92 1009.1
20260505095818 55 71 3.0 5.0 0.00 0.24 0.00 92 1009.1
20260505095317 55 131 2.0 6.0 0.00 0.24 0.00 92 1009.1
20260505094833 55 118 3.0 7.0 0.00 0.24 0.00 91 1009.1
20260505094330 55 94 3.0 7.0 0.00 0.24 0.00 91 1009.1
20260505093827 55 94 4.0 8.0 0.00 0.24 0.00 91 1009.1
20260505093322 55 66 5.0 8.0 0.00 0.24 0.00 91 1009.1
20260505092817 55 27 5.0 8.0 0.00 0.24 0.00 91 1009.0
20260505092336 55 74 2.0 5.0 0.00 0.24 0.00 91 1009.0
20260505091830 55 65 4.0 5.0 0.00 0.24 0.00 92 1009.0
20260505091328 55 355 2.0 5.0 0.00 0.24 0.00 92 1009.1
20260505090824 55 74 3.0 6.0 0.00 0.24 0.00 92 1009.0
20260505090323 55 48 4.0 6.0 0.00 0.24 0.00 92 1009.0
20260505085837 54 38 2.0 10.0 0.00 0.47 0.00 92 1009.1
20260505085314 54 80 3.0 8.0 0.00 0.47 0.00 92 1009.1
20260505084829 54 81 5.0 9.0 0.00 0.47 0.00 92 1009.1
20260505084327 55 87 5.0 9.0 0.00 0.47 0.00 92 1009.1
20260505083822 55 92 4.0 11.0 0.00 0.47 0.00 91 1009.1
20260505083320 55 66 4.0 11.0 0.00 0.47 0.00 91 1009.1
20260505082834 55 65 5.0 9.0 0.00 0.47 0.00 91 1009.1
20260505082331 55 109 5.0 9.0 0.00 0.47 0.00 92 1009.2
20260505081826 55 109 4.0 12.0 0.00 0.47 0.00 91 1009.2
20260505081324 55 97 6.0 12.0 0.00 0.47 0.00 91 1009.2
20260505080819 55 107 8.0 11.0 0.00 0.47 0.00 91 1009.2
20260505080317 56 48 4.0 11.0 0.00 0.47 0.00 91 1009.2
20260505075831 56 94 6.0 11.0 0.00 0.67 0.00 90 1009.2
20260505075350 56 85 7.0 12.0 0.00 0.67 0.00 90 1009.2
20260505074825 56 73 6.0 12.0 0.00 0.67 0.00 89 1009.2
20260505074322 57 34 6.0 10.0 0.00 0.67 0.00 90 1009.2
20260505073818 57 60 5.0 11.0 0.00 0.67 0.00 90 1009.3
20260505073316 57 43 6.0 12.0 0.00 0.67 0.00 90 1009.4
20260505072832 56 64 7.0 11.0 0.00 0.67 0.00 91 1009.4
20260505072330 56 74 6.0 13.0 0.00 0.67 0.00 92 1009.3
20260505071826 57 67 7.0 11.0 0.00 0.67 0.00 93 1009.4
20260505071323 57 65 2.0 10.0 0.00 0.67 0.00 94 1009.3
20260505070819 56 26 6.0 10.0 0.00 0.67 0.00 94 1009.4
20260505070314 55 333 4.0 6.0 0.00 0.67 0.00 95 1009.3
20260505065829 55 69 3.0 8.0 0.00 0.91 0.00 95 1009.4
20260505065328 55 30 5.0 6.0 0.00 0.91 0.00 94 1009.5
20260505064824 54 57 4.0 6.0 0.00 0.91 0.00 95 1009.6
20260505064336 55 86 3.0 7.0 0.00 0.91 0.00 95 1009.6
20260505063829 54 34 2.0 4.0 0.00 0.91 0.00 95 1009.6
20260505063326 54 64 1.0 4.0 0.00 0.91 0.00 95 1009.7
20260505062822 54 64 3.0 5.0 0.00 0.91 0.00 95 1009.7
20260505062339 54 44 3.0 5.0 0.00 0.91 0.00 95 1009.7
20260505061854 54 50 1.0 3.0 0.00 0.91 0.00 95 1009.7
20260505061330 54 50 2.0 5.0 0.00 0.91 0.00 95 1009.7
20260505060823 53 44 2.0 6.0 0.00 0.91 0.00 95 1009.8
20260505060314 53 38 3.0 8.0 0.00 0.91 0.00 95 1009.8
20260505055854 52 42 4.0 8.0 0.00 1.02 0.00 95 1009.8
20260505055328 52 56 1.0 9.0 0.00 1.02 0.00 95 1009.7
20260505054822 52 9 1.0 9.0 0.00 1.02 0.00 95 1009.7
20260505054320 51 43 5.0 9.0 0.00 1.02 0.00 95 1009.7
20260505053815 51 54 4.0 7.0 0.00 1.02 0.00 95 1009.6
20260505053331 51 39 2.0 5.0 0.00 1.02 0.00 95 1009.6
20260505052825 51 25 3.0 8.0 0.00 1.02 0.00 95 1009.7
20260505052344 51 355 4.0 7.0 0.00 1.02 0.00 95 1009.7
20260505051816 51 23 3.0 4.0 0.00 1.02 0.00 95 1009.7
20260505051333 51 25 2.0 4.0 0.00 1.02 0.00 95 1009.7
20260505050829 51 355 2.0 4.0 0.00 1.02 0.00 95 1009.8
20260505050347 51 19 1.0 3.0 0.00 1.02 0.00 95 1009.8
20260505041323 51 36 2.0 4.0 0.00 1.06 0.00 95 1009.8
20260505040820 51 36 3.0 5.0 0.00 1.06 0.00 95 1009.7
20260505040318 52 30 4.0 6.0 0.00 1.06 0.00 95 1009.8
20260505035831 52 29 4.0 6.0 0.00 1.10 0.00 95 1009.9
20260505035329 51 32 4.0 6.0 0.00 1.10 0.00 95 1010.0
20260505034824 51 34 3.0 5.0 0.00 1.10 0.00 95 1010.1
20260505034324 50 59 4.0 4.0 0.00 1.10 0.00 95 1010.2
20260505033839 50 28 1.0 3.0 0.00 1.10 0.00 95 1010.1
20260505033337 50 28 2.0 3.0 0.00 1.10 0.00 94 1010.1
20260505032833 50 28 2.0 2.0 0.00 1.10 0.00 95 1010.1
20260505032331 50 28 0.0 2.0 0.00 1.10 0.00 95 1010.1
20260505031827 50 28 1.0 2.0 0.00 1.10 0.00 95 1010.1
20260505031325 50 28 2.0 4.0 0.00 1.10 0.00 94 1010.2
20260505030818 50 28 2.0 4.0 0.00 1.10 0.00 94 1010.2
20260505030317 50 28 2.0 4.0 0.00 1.10 0.00 94 1010.2
20260505025833 51 28 1.0 2.0 0.00 1.10 0.00 95 1010.2
20260505025330 51 28 1.0 4.0 0.00 1.10 0.00 95 1010.3
20260505024825 51 28 3.0 4.0 0.00 1.10 0.00 95 1010.3
20260505024322 51 28 3.0 4.0 0.00 1.10 0.00 95 1010.4
20260505023817 51 28 2.0 4.0 0.00 1.10 0.00 95 1010.5
20260505023315 51 28 2.0 3.0 0.00 1.10 0.00 95 1010.6
20260505022830 51 28 1.0 3.0 0.00 1.10 0.00 95 1010.6
20260505022322 50 28 2.0 3.0 0.00 1.10 0.00 95 1010.5
20260505021837 50 28 2.0 4.0 0.00 1.10 0.00 95 1010.5
20260505021333 50 351 1.0 3.0 0.00 1.10 0.00 95 1010.6
20260505020827 50 348 1.0 2.0 0.00 1.10 0.00 95 1010.7
20260505020325 50 348 1.0 2.0 0.00 1.10 0.00 95 1010.8
20260505015820 50 348 0.0 1.0 0.00 1.10 0.00 95 1010.8
20260505015337 50 348 1.0 3.0 0.00 1.10 0.00 94 1010.8
20260505014833 51 348 1.0 3.0 0.00 1.10 0.00 95 1010.9
20260505014351 50 347 2.0 3.0 0.00 1.10 0.00 95 1010.8
20260505013847 50 348 0.0 2.0 0.00 1.10 0.00 95 1010.9
20260505013325 50 348 1.0 4.0 0.00 1.10 0.00 95 1010.9
20260505012820 49 348 3.0 4.0 0.00 1.10 0.00 95 1011.0
20260505012317 49 21 1.0 2.0 0.00 1.10 0.00 95 1011.0
20260505011833 49 21 0.0 1.0 0.00 1.10 0.00 94 1011.2
20260505011330 49 21 0.0 1.0 0.00 1.10 0.00 95 1011.1
20260505010825 49 20 0.0 0.0 0.00 1.10 0.00 94 1011.2
20260505010324 49 20 0.0 0.0 0.00 1.10 0.00 95 1011.3
20260505005817 49 20 0.0 0.0 0.00 1.10 0.00 94 1011.3
20260505005315 49 20 0.0 0.0 0.00 1.10 0.00 95 1011.3
20260505004830 48 20 0.0 0.0 0.00 1.10 0.00 94 1011.3
20260505004329 48 20 0.0 2.0 0.00 1.10 0.00 94 1011.2
20260505003823 49 20 0.0 2.0 0.00 1.10 0.00 94 1011.3
20260505003341 48 20 0.0 2.0 0.00 1.10 0.00 94 1011.3
20260505002815 49 20 0.0 2.0 0.00 1.10 0.00 94 1011.3
20260505002312 50 20 1.0 2.0 0.00 1.10 0.00 94 1011.3
20260505001829 49 20 1.0 2.0 0.00 1.10 0.00 94 1011.4
20260505001326 50 20 1.0 2.0 0.00 1.10 0.00 94 1011.3
20260505000823 50 20 1.0 2.0 0.00 1.10 0.00 94 1011.2
20260505000320 50 20 0.0 2.0 0.00 1.10 0.00 94 1011.2
20260504235815 50 20 1.0 2.0 0.00 1.10 0.00 94 1011.4
20260504235331 50 20 0.0 2.0 0.00 1.10 0.00 94 1011.3
20260504234826 50 20 0.0 3.0 0.00 1.10 0.00 94 1011.3
20260504234327 50 20 2.0 3.0 0.00 1.10 0.00 94 1011.4
20260504233820 50 9 1.0 3.0 0.00 1.10 0.00 94 1011.4
20260504233337 50 9 1.0 3.0 0.00 1.10 0.00 94 1011.4
20260504232826 50 9 2.0 3.0 0.00 1.10 0.00 94 1011.5
20260504232326 50 9 2.0 3.0 0.00 1.10 0.00 94 1011.6
20260504231820 50 9 2.0 3.0 0.00 1.10 0.00 94 1011.6
20260504231316 50 351 1.0 2.0 0.00 1.10 0.00 94 1011.7
20260504230830 50 351 1.0 2.0 0.00 1.10 0.00 94 1011.6
20260504230327 51 17 1.0 2.0 0.00 1.10 0.00 94 1011.7
20260504225941 51 17 1.0 1.0 0.00 1.10 0.00 94 1011.7
20260504225325 51 17 0.0 1.0 0.00 1.10 0.00 94 1011.7
20260504224820 51 17 0.0 2.0 0.00 1.10 0.00 94 1011.8
20260504224315 51 17 0.0 2.0 0.00 1.10 0.00 93 1011.9
20260504223900 51 17 1.0 2.0 0.00 1.10 0.00 94 1011.9
20260504223357 51 17 2.0 2.0 0.00 1.10 0.00 93 1011.9
20260504222850 51 17 0.0 2.0 0.00 1.10 0.00 93 1012.0
20260504222328 51 17 0.0 0.0 0.00 1.10 0.00 94 1012.0
20260504221825 51 17 0.0 0.0 0.00 1.10 0.00 93 1012.0
20260504221322 52 17 0.0 0.0 0.00 1.10 0.00 93 1012.0
20260504220817 52 16 0.0 0.0 0.00 1.10 0.00 93 1012.2
20260504220335 52 16 0.0 0.0 0.00 1.10 0.00 93 1012.3
20260504215822 52 16 0.0 1.0 0.00 1.10 0.22 93 1012.3
20260504215320 52 17 0.0 1.0 0.00 1.10 0.22 93 1012.2
20260504214814 52 16 0.0 1.0 0.00 1.10 0.22 93 1012.3
20260504214332 52 16 1.0 3.0 0.00 1.10 0.22 93 1012.3
20260504213827 53 16 1.0 5.0 0.00 1.10 0.22 93 1012.3
20260504213327 53 341 2.0 5.0 0.00 1.10 0.22 93 1012.3